リニア彗星

C/1999 H3 ( LINEAR )

English version
Home page
Updated on March 31, 2002

---------------------------------------------------------------------

・ プロフィール

発見日 1999年 4月22日
発見光度 16.8等
発見者 Lincoln Laboratory Near-Earth Asteroid Research project

・ 写真集

・ 軌道要素

   The following improved orbital elements by Kenji Muraoka, are 
  from 786 observations 1999 Apr. 22 to 2001 Mar. 31, perturbations
  by 9 Planets, Moon and 5 minor planets were taken into account.
   The mean residual is +/- 0.71 arc seconds.

      Epoch  =  1999 Aug. 10.0  TT       JDT = 2451400.5
          T  =  1999 Aug. 18.23390       +/- 0.00029 (m.e.) TT
       Peri. =  101.91125                +/- 0.00004
       Node  =  332.72356                +/- 0.00004   (2000.0)
       Incl. =  115.84027                +/- 0.00003
          q  =    3.5008678              +/- 0.0000018 AU
          e  =    1.0028222              +/- 0.0000027
        1/a  =   -0.0008062              +/- 0.0000008 1/AU
  orig. 1/a  =   +0.0000656 
  fut.  1/a  =   -0.0000092 

・ 星図

・ 光度変化

        m1 = 5.5 + 5 logΔ + 10.0 log r

---------------------------------------------------------------------

軌道要素は村岡健治氏の計算によるものです。
星図は StellaNavigator Ver.2.0 for Windows (アストロアーツ 編著 / アスキー出版局刊) で作成したものです。
光度グラフはComet for Windowsで作成したものです。

---------------------------------------------------------------------

Copyright(C) Seiichi Yoshida (comet@aerith.net). All rights reserved.